Regional Weather Roundup
Issued by NWS

Home | Current Version | Previous Version | Graphics & Text | Print | Product List | Glossary On
Versions: 1 2 3 4 5 6 7 8 9 10 11 12 13 14 15 16 17 18 19 20 21 22 23 24 25 26 27 28 29 30 31 32 33 34 35 36 37 38 39 40 41 42 43 44 45 46 47 48 49 50
000
ASUS44 KMEG 200700
RWRTN
TENNESSEE HOURLY STATE WEATHER ROUNDUP
NATIONAL WEATHER SERVICE MEMPHIS TN
200 AM CDT SUN APR 20 2014

TNZ002-004-019-021-049-052-054-088>092-200800-
WEST TENNESSEE

CITY           SKY/WX    TMP DP  RH WIND       PRES   REMARKS
MEMPHIS INTL   CLEAR     56  46  69 CALM      30.14S
NWS MEMPHIS      N/A     51 N/A N/A MISG        N/A
JACKSON        CLEAR     47  43  86 CALM      30.14F
DYERSBURG      CLEAR     57  39  51 NE5       30.16S
UNION CITY     CLEAR     50  46  87 CALM      30.14F
LEXINGTON      CLEAR     48  43  81 CALM      30.15F
$$

TNZ008-025-027-028-033-062-065-066-200800-
NORTH MIDDLE TENNESSEE

CITY           SKY/WX    TMP DP  RH WIND       PRES   REMARKS
NASHVILLE      PTCLDY    52  42  69 CALM      30.17S
CLARKSVILLE    CLEAR     51  43  74 CALM      30.17F
COOKEVILLE     CLEAR     43  39  87 CALM      30.17R
CROSSVILLE     CLEAR     45  39  79 CALM      30.19S HAZE
$$

TNZ061-075-076-078-094-096-097-200800-
SOUTH MIDDLE TENNESSEE

CITY           SKY/WX    TMP DP  RH WIND       PRES   REMARKS
TULLAHOMA      CLEAR     45  39  81 CALM      30.18R
WINCHESTER     CLEAR     46  43  87 W5        30.17S
MCMINNVILLE    CLEAR     45  43  93 CALM      30.16F
COLUMBIA       CLEAR     46  46 100 CALM      30.15F
$$

TNZ017-018-042-046-047-200800-
NORTHEAST TENNESSEE

CITY           SKY/WX    TMP DP  RH WIND       PRES   REMARKS
TRI CITIES     CLOUDY    49  40  71 CALM      30.20S
ELIZABETHTON   SUNNY     52  37  58 CALM      30.20F
$$

TNZ012-013-036-069-073-074-200800-
CENTRAL EAST TENNESSEE

CITY           SKY/WX    TMP DP  RH WIND       PRES   REMARKS
KNOXVILLE      CLOUDY    50  49  96 CALM      30.17S
OAK RIDGE      MOCLDY    48  44  86 CALM      30.19S
$$

TNZ083-085-099-200800-
SOUTHEAST TENNESSEE

CITY           SKY/WX    TMP DP  RH WIND       PRES   REMARKS
CHATTANOOGA    CLEAR     49  45  86 CALM      30.17S
$$

SKY/WX REPORTED AS FAIR MEANS FEW OR NO CLOUDS BELOW
12 THOUSAND FEET.




USA.gov is the U.S. government's official web portal to all federal, state and local government web resources and services.